Location: Codford Saint Peter
(51.1597°N, 2.0531°W)
Time: 15:01:33
(UTC+00:00)

SPOT 5 - Pass Details

Date: 18 September 2020
Orbit: 623 x 815 km, 98.3° (Epoch: 28 October)

Event Time Altitude Azimuth Distance (km) Brightness Sun altitude
Exits shadow 20:40:13 31° 65° (ENE) 1,357 4.0 -22.3°
Maximum altitude 20:40:23 31° 61° (ENE) 1,356 4.0 -22.3°
Drops below altitude 10° 20:45:01 10° 1° (N) 2,399 6.0 -22.9°
Sets 20:47:36 0° 352° (N) 3,346 6.9 -23.3°
